Theta_e
332 332 333 332 332 332 333 333 329 319 315 317 319 319 321 322 322 325 331 334 335 335 334 334 333 332 332 332 332 332 333 333 333 332 332 332 331 329 327 327 324 323 322 322 322 322 321 319 318 316 313 310 308 306 306 306 307 309 310 312 314 316 318 319 319 320 320 320 319 320 319 319 318 318 318 318 316 312 308 307 306 307 312 314 317
332 332 332 332 332 332 331 333 333 328 320 315 316 318 319 321 322 323 327 330 332 334 335 334 334 333 333 333 332 332 331 332 333 332 332 331 330 330 329 329 326 324 323 323 323 322 321 321 319 315 312 309 307 306 306 306 307 309 311 314 316 318 319 319 320 320 321 320 320 320 319 319 319 318 319 320 320 318 314 310 307 305 308 311 313
331 331 332 332 332 332 331 331 332 332 328 319 313 316 317 319 321 322 324 326 328 333 335 334 334 333 333 333 333 332 331 332 332 332 332 331 330 330 330 330 327 325 324 322 323 322 321 322 319 313 310 307 306 306 306 306 308 311 313 316 318 319 320 320 320 321 321 321 321 320 319 320 321 319 319 320 322 322 320 315 311 308 307 309 311
330 331 331 330 331 332 331 330 330 331 332 327 319 316 316 319 321 323 326 329 328 331 334 335 334 333 333 333 333 333 332 332 332 332 332 331 331 331 330 330 327 326 325 323 324 322 321 321 317 311 308 305 305 305 306 307 309 313 316 318 319 320 321 321 321 321 321 321 321 320 319 320 320 320 320 321 321 322 322 319 315 313 310 310 313
329 331 331 330 330 331 331 331 330 330 332 332 328 323 321 322 325 327 329 331 331 331 333 334 335 334 333 333 333 333 332 332 332 332 332 331 331 331 330 330 328 327 328 327 325 321 320 319 313 309 307 305 305 305 307 309 312 316 318 319 320 321 321 321 321 321 321 321 321 321 320 320 320 320 320 320 320 321 322 321 318 317 315 312 313
329 331 331 330 330 330 331 332 331 330 330 332 332 330 328 327 327 329 330 330 331 332 332 333 335 334 333 332 333 333 333 332 333 332 331 331 330 331 331 330 329 328 329 329 325 319 317 315 311 308 306 305 304 306 309 312 315 318 320 321 321 321 320 319 320 320 320 321 321 321 321 320 320 321 320 320 320 320 322 321 319 319 319 317 314
328 330 331 330 330 330 331 331 331 331 330 331 332 332 331 330 329 330 330 330 331 331 331 332 334 334 334 332 332 332 333 333 333 332 331 331 331 330 330 330 329 329 329 329 327 322 315 312 310 307 305 304 304 307 311 315 318 320 321 322 322 321 319 319 319 319 319 319 320 320 321 320 320 320 320 320 320 320 321 322 321 320 321 320 318
327 328 328 329 329 330 331 331 332 331 331 331 332 332 332 331 331 330 330 331 331 330 330 331 333 334 334 333 332 332 332 333 332 331 331 331 331 331 330 328 328 330 330 329 328 324 317 311 308 307 305 304 306 310 314 317 320 321 322 323 323 321 319 319 319 319 319 319 318 318 320 320 320 319 320 320 320 320 321 322 322 322 322 321 320
327 327 327 328 328 330 331 331 331 331 332 332 332 332 332 332 331 330 330 331 331 331 330 330 331 333 334 334 332 331 331 332 331 330 330 330 331 332 330 328 328 330 330 330 329 326 322 314 307 305 304 304 308 312 316 319 321 322 323 324 323 321 320 320 320 319 320 319 318 317 318 320 319 319 320 320 320 320 321 322 322 323 322 322 322
327 329 330 329 329 329 330 331 331 331 331 332 332 332 332 332 331 331 331 331 331 331 331 330 330 332 334 334 332 331 331 331 330 330 330 329 329 330 332 330 329 330 330 330 329 327 326 318 308 305 305 306 311 315 318 321 321 322 324 325 324 322 322 323 322 320 320 320 319 317 316 319 320 319 320 320 321 321 321 322 322 323 323 323 323
328 330 330 329 330 331 331 331 331 331 331 331 332 332 332 332 331 331 331 331 331 330 330 330 330 331 333 334 333 331 331 331 330 330 330 329 327 328 332 331 329 330 330 330 330 328 327 320 310 308 308 310 314 317 320 321 322 323 325 326 326 324 324 326 324 321 320 321 321 319 316 317 319 319 320 320 320 321 321 322 323 323 323 323 323
329 330 329 329 330 332 332 332 332 332 332 332 332 332 332 332 332 332 332 332 331 331 331 330 330 330 331 333 333 332 331 331 331 330 330 329 328 328 330 331 330 331 330 330 330 329 328 323 315 311 312 314 317 319 321 321 322 324 326 327 327 326 326 327 326 323 320 320 321 321 317 316 318 320 320 320 321 321 321 322 323 323 323 323 323
329 329 330 331 332 333 333 333 333 333 332 332 333 333 333 333 333 333 332 332 331 331 332 331 331 330 330 331 332 332 331 331 331 331 331 330 329 329 330 331 330 330 330 330 330 329 327 326 321 316 315 317 319 320 322 322 323 325 326 327 327 327 327 327 327 324 321 319 320 322 319 315 317 320 320 321 321 321 322 322 322 323 322 322 322
330 331 331 332 332 332 333 333 332 332 332 332 332 332 333 333 333 333 333 332 331 331 332 332 332 331 330 330 331 331 331 331 331 331 331 331 330 330 331 331 330 330 331 331 331 329 327 327 326 322 318 318 319 320 321 322 323 325 326 327 327 327 327 327 327 325 322 320 319 321 321 316 316 320 320 321 322 321 322 322 322 323 323 322 321
332 332 332 332 333 332 332 332 332 332 332 332 331 332 332 333 333 332 332 332 332 331 331 331 332 332 331 331 330 331 331 331 331 330 330 332 331 330 330 331 330 330 331 331 331 330 328 327 328 327 323 319 319 320 321 321 322 324 326 327 327 328 327 327 327 325 322 320 319 320 321 317 315 319 321 320 321 321 322 322 322 322 323 321 320
332 331 331 332 333 332 332 332 332 332 332 332 332 332 332 333 333 333 332 332 332 332 331 331 332 332 332 332 331 331 331 330 330 329 330 331 332 330 329 330 331 330 331 331 331 330 329 328 328 329 327 323 321 322 323 323 323 324 326 326 327 327 327 327 327 325 322 319 319 320 320 317 315 317 321 321 320 320 321 322 322 322 322 320 317
333 332 332 332 332 332 332 332 332 332 332 332 332 332 332 332 332 333 332 332 332 331 331 331 332 332 332 332 331 331 331 330 330 330 330 331 331 330 328 329 330 331 331 331 331 330 330 329 328 329 328 326 324 325 326 326 324 324 325 325 326 327 327 328 327 325 323 318 318 320 319 317 314 313 317 320 320 319 319 321 322 322 321 318 315
333 333 332 332 333 332 332 332 332 332 332 333 333 332 331 331 332 333 332 331 331 331 330 331 331 331 332 332 331 331 331 330 330 330 330 330 330 329 328 329 330 331 331 331 330 330 330 330 329 328 328 327 327 327 327 326 325 324 325 325 325 326 327 328 327 325 321 316 318 320 318 316 315 309 309 313 314 315 316 318 320 321 320 318 315
332 333 333 332 333 332 332 332 332 332 332 332 331 331 331 330 331 332 331 331 331 331 330 330 331 331 331 332 331 331 331 330 330 330 330 330 329 329 328 329 330 331 331 331 330 330 330 330 329 328 329 328 328 328 327 326 325 325 325 324 324 326 327 327 327 326 321 316 318 321 318 315 314 309 305 306 307 309 313 316 318 319 318 316 313
332 332 332 332 332 332 331 331 331 331 331 330 329 329 330 330 331 331 331 331 331 331 331 331 331 331 331 331 332 331 331 330 330 329 330 330 329 329 329 329 329 330 330 331 330 330 330 330 329 329 329 329 328 328 327 326 326 326 325 324 324 325 326 326 327 326 321 316 318 321 319 314 313 309 304 304 305 306 310 314 316 316 314 312 308
333 333 332 331 331 331 330 330 330 331 331 329 328 328 328 329 330 331 331 330 330 330 331 331 331 331 331 331 331 331 331 331 330 329 329 330 330 329 329 330 330 330 330 330 330 330 330 330 329 329 329 329 328 328 327 326 326 326 326 325 324 324 325 325 326 325 319 314 317 321 319 314 312 309 304 304 304 303 304 307 309 309 308 306 303
332 333 332 331 331 331 330 330 330 330 330 329 328 327 327 327 328 329 330 329 329 329 330 329 330 331 331 331 332 330 330 330 329 329 329 330 330 330 329 330 329 329 329 330 330 330 330 330 330 329 329 329 328 328 327 327 326 326 326 326 324 324 325 325 325 324 318 312 312 317 319 316 312 308 303 303 303 301 302 302 302 303 302 302 301
331 332 331 331 331 331 330 330 330 329 329 328 328 328 328 327 327 329 329 329 329 329 329 329 330 331 331 331 331 330 329 329 328 328 329 330 330 330 329 329 329 329 329 329 329 330 330 331 330 329 329 329 328 328 328 327 327 326 326 326 325 325 324 325 326 323 317 312 309 312 318 319 314 308 303 303 302 301 302 301 301 301 301 301 301
330 330 330 330 330 330 330 330 329 329 328 328 328 328 328 327 328 328 329 329 329 329 329 329 329 330 331 331 330 329 328 327 326 326 328 329 330 330 329 329 330 329 329 329 330 329 330 331 330 329 329 329 329 328 329 328 327 326 326 326 326 325 324 324 326 322 315 312 307 307 316 320 316 308 303 303 302 302 302 301 301 301 301 301 301
328 328 328 329 329 329 329 329 329 329 329 328 328 328 328 328 328 328 328 328 328 329 329 329 329 330 330 331 331 330 328 327 326 327 328 329 330 331 330 329 329 329 329 329 330 329 330 330 330 329 329 329 329 329 329 328 328 326 326 326 326 325 324 324 325 322 315 311 308 305 312 320 318 309 303 303 302 302 302 301 301 301 301 301 301
327 326 326 327 327 327 327 327 328 328 328 328 328 328 328 328 328 328 328 328 328 329 329 329 329 330 330 331 331 330 329 327 327 328 329 330 330 330 330 329 330 330 329 329 330 330 330 330 329 329 329 329 329 329 329 328 328 327 326 326 326 325 325 324 325 322 315 311 309 305 308 316 318 311 304 303 302 302 302 301 301 301 301 301 301
325 325 325 325 326 326 326 325 326 327 327 328 328 328 329 329 328 328 328 328 328 328 328 328 329 329 330 330 331 330 329 327 328 329 330 330 330 329 329 329 330 330 329 329 330 330 330 330 329 329 329 329 329 329 328 328 328 328 327 326 326 325 325 324 324 320 314 311 309 306 305 310 314 310 304 303 303 302 302 302 301 302 301 301 301
321 322 322 322 323 324 324 325 326 326 326 326 327 328 329 328 328 328 328 328 328 328 328 328 328 329 330 330 330 330 329 328 327 328 329 330 330 329 329 329 329 329 329 330 330 330 330 330 330 329 329 329 329 328 328 328 328 328 327 326 326 325 325 324 322 318 313 311 309 307 306 306 308 307 304 303 303 302 302 302 302 302 301 301 302
318 319 319 320 320 320 321 323 324 325 325 326 326 327 328 328 328 328 327 327 327 327 327 328 327 328 329 330 330 330 328 328 328 327 328 330 330 330 330 331 330 329 329 330 330 329 329 329 330 330 329 329 328 328 329 328 328 328 328 327 326 325 325 324 321 317 312 310 309 307 306 305 305 305 304 303 303 302 302 302 302 302 301 302 302
315 316 317 317 318 318 319 320 321 322 324 324 325 326 327 327 327 327 326 326 327 327 327 328 327 328 328 328 330 330 329 329 329 328 328 329 329 329 330 330 330 330 330 329 329 329 328 329 329 330 330 329 329 329 329 328 327 328 328 327 326 325 325 324 321 317 311 309 309 308 306 305 304 304 303 303 303 302 302 302 302 302 302 302 302
313 314 314 314 315 316 318 319 319 319 320 322 323 324 325 326 326 326 326 326 326 327 327 328 328 328 328 328 329 330 330 330 329 329 328 328 329 329 330 329 329 330 330 330 330 329 328 329 329 329 329 329 329 328 329 328 327 328 328 328 326 325 325 325 322 316 310 308 309 308 306 305 304 303 303 303 302 302 302 302 302 302 302 302 302
312 312 312 313 313 314 315 316 317 318 318 319 320 322 323 324 324 324 325 326 325 326 327 328 328 327 328 328 328 329 329 329 329 329 329 329 329 329 330 329 329 329 329 330 330 329 329 329 329 329 329 329 328 328 328 328 327 328 328 328 327 326 326 324 320 315 309 306 308 308 306 306 304 303 303 302 302 302 302 302 302 302 302 302 302
312 312 312 312 312 313 313 313 315 316 317 318 318 319 320 321 322 323 323 324 325 325 326 327 328 328 328 328 328 328 329 329 329 329 329 329 330 330 330 330 329 329 329 329 330 329 329 329 329 329 329 329 329 328 328 328 328 328 328 328 327 327 327 325 322 318 311 306 307 308 306 306 304 303 303 303 302 302 302 302 302 302 302 302 302
311 311 311 312 312 312 313 313 313 314 314 315 316 317 317 318 319 320 321 322 323 324 325 327 327 327 327 327 328 328 328 329 329 329 330 330 330 330 329 329 329 329 329 329 329 329 329 329 329 329 330 330 329 328 328 329 328 328 328 328 328 327 327 326 325 323 316 307 306 307 306 306 305 303 302 303 302 302 302 302 302 302 302 302 302
310 311 311 311 311 312 312 313 313 313 313 313 314 314 314 315 316 317 318 320 321 322 323 325 327 327 328 328 328 328 328 329 329 329 330 331 331 330 329 329 328 328 330 329 329 329 329 329 329 329 330 330 330 328 328 328 329 329 328 328 328 327 327 327 325 324 320 310 305 306 306 306 306 303 302 303 302 302 302 302 302 302 302 302 302
310 310 310 310 310 311 311 311 312 312 312 312 312 312 312 313 313 314 314 315 317 320 322 325 326 326 327 328 327 328 328 328 328 329 329 330 331 330 329 328 328 328 328 329 329 330 329 329 329 329 329 330 330 329 328 329 329 329 329 328 328 327 327 327 325 323 322 316 307 305 305 306 306 305 302 302 302 302 302 302 302 302 302 302 302
309 309 310 309 309 309 309 310 310 310 311 311 311 311 311 312 312 313 313 313 314 316 319 322 324 325 326 327 327 327 327 328 328 328 329 330 331 330 329 329 328 328 329 329 329 329 330 329 329 328 328 328 329 329 329 329 329 329 328 328 328 328 327 327 325 324 324 320 310 304 305 305 306 305 303 302 302 302 302 302 302 302 302 302 302
308 308 308 308 308 308 308 308 308 308 309 309 309 309 310 311 312 312 313 313 314 314 315 319 322 324 325 326 327 327 327 327 328 328 328 329 330 331 330 329 328 328 329 329 329 329 329 329 329 328 328 328 328 328 328 329 329 329 329 328 327 327 326 326 326 325 324 322 313 304 304 306 306 306 304 302 302 302 302 302 302 302 302 303 303
305 305 305 306 306 306 306 307 307 307 307 307 307 308 308 309 310 311 312 313 314 314 314 316 319 321 323 325 326 326 327 327 327 327 328 328 329 330 330 329 327 327 328 329 329 329 328 329 329 328 328 328 328 328 328 329 329 328 328 328 328 327 326 326 326 325 324 321 313 305 304 305 306 306 305 302 302 302 302 302 302 302 302 302 302
303 302 303 303 304 304 304 305 305 305 305 305 306 306 306 308 309 310 312 313 313 314 314 314 316 319 321 322 323 325 326 327 327 327 328 328 329 329 330 329 328 328 328 328 328 328 328 328 329 329 329 329 327 328 328 328 328 328 327 327 327 327 327 326 325 324 322 318 311 305 304 306 306 306 305 303 302 302 302 302 302 302 302 302 302
301 301 301 302 302 302 302 302 303 303 304 304 303 303 304 306 307 308 310 311 312 313 314 314 315 317 319 320 321 323 325 326 327 327 327 328 328 329 329 329 329 330 329 329 328 328 328 328 329 328 329 329 327 327 328 327 328 327 327 327 326 326 326 326 325 324 322 317 311 306 304 305 307 306 305 303 302 302 302 302 301 302 302 302 302
300 300 300 300 301 300 301 301 301 301 302 302 302 302 303 304 305 307 308 309 310 311 312 313 314 316 317 319 320 322 323 325 326 327 327 328 328 329 329 329 330 330 330 330 330 329 329 329 328 328 328 328 328 327 327 327 327 327 327 327 327 326 326 326 325 324 322 318 314 309 306 306 307 307 306 304 302 302 302 302 302 302 301 302 302
299 300 300 300 299 299 299 299 299 299 300 300 300 301 302 303 304 305 306 307 309 310 311 311 313 314 316 318 320 321 323 324 325 326 327 327 328 328 329 329 329 330 330 330 330 330 329 329 329 329 328 328 328 328 327 327 327 327 327 327 327 327 326 326 325 324 322 319 316 314 312 310 308 307 306 304 303 302 302 302 302 302 301 301 302
298 298 298 298 298 298 298 298 298 298 298 298 299 300 301 302 303 304 305 306 307 308 309 310 311 313 314 316 318 320 322 323 324 325 326 327 328 328 328 328 329 329 330 330 331 330 329 329 329 329 329 328 328 328 328 327 327 327 327 327 327 327 327 327 326 325 323 320 317 316 318 315 311 308 307 305 303 302 302 302 302 302 302 301 302
297 297 297 297 297 297 297 297 297 297 297 298 298 299 299 300 302 303 304 305 305 306 308 309 310 311 313 315 317 319 321 322 323 324 324 325 327 327 328 328 328 328 329 330 330 330 330 329 329 329 329 329 328 328 327 327 327 327 327 327 327 327 327 327 326 326 325 322 318 317 318 315 310 308 307 306 304 302 302 302 302 301 301 301 301
297 297 297 297 296 296 296 296 296 296 296 297 297 298 298 299 300 302 303 304 304 305 306 307 308 309 310 312 314 317 319 321 322 323 324 324 325 326 327 327 327 327 328 329 329 329 329 329 328 328 328 328 328 328 328 327 327 327 327 327 326 327 327 326 325 326 324 321 318 317 315 311 309 309 309 308 306 304 302 301 301 301 301 301 301
296 296 296 296 296 296 296 296 296 296 296 296 296 297 298 298 299 300 301 302 303 304 305 305 306 307 308 310 312 314 317 319 321 322 322 324 325 325 326 326 326 326 327 328 328 328 328 328 328 328 328 328 328 328 327 327 326 326 327 327 326 326 326 325 325 324 322 319 318 316 312 311 313 313 313 312 311 309 306 303 301 301 301 301 301
297 296 296 297 297 297 296 296 295 294 294 294 295 296 297 298 298 299 300 301 302 303 304 304 305 306 306 308 309 311 313 316 318 320 320 322 324 325 326 326 326 326 327 327 327 326 326 327 327 325 325 327 328 327 327 327 327 327 326 326 326 325 324 323 322 322 321 319 318 316 312 311 313 314 314 314 312 311 309 306 303 301 300 300 301
297 297 297 297 297 297 296 295 294 293 293 293 294 295 296 297 297 298 299 300 300 302 302 303 304 305 305 306 307 309 311 313 316 317 319 320 323 324 325 326 326 326 326 327 327 327 327 328 326 324 325 327 328 327 327 327 327 327 327 326 325 325 324 323 321 321 321 319 317 317 315 312 312 313 314 314 312 311 309 308 305 303 301 300 300
297 297 297 297 297 296 296 294 293 293 293 293 294 295 296 296 296 297 298 298 299 300 301 302 303 303 304 305 306 307 309 311 313 314 316 318 321 323 324 325 326 326 326 326 327 328 328 328 327 327 327 327 327 327 327 327 326 326 326 326 326 325 325 324 322 322 321 318 317 318 316 314 312 313 314 313 311 309 309 308 307 305 303 302 300
297 297 297 297 296 296 295 294 293 293 294 293 293 294 295 296 296 296 297 297 298 298 299 301 302 302 303 304 304 305 306 308 310 312 314 316 319 321 323 323 324 325 325 326 327 327 328 327 328 328 327 325 325 325 326 326 326 326 326 326 326 325 325 325 324 321 319 318 317 317 316 314 313 313 313 312 310 308 308 308 307 306 305 304 302
Wind_Speed
6 7 7 7 7 7 7 7 7 9 12 13 13 12 12 13 13 13 12 11 9 8 8 7 6 6 6 7 9 11 12 11 11 11 11 12 13 13 12 12 13 13 12 11 10 11 10 10 10 9 8 5 3 3 4 5 7 8 8 8 8 7 7 6 5 5 4 4 5 5 6 7 7 7 8 9 10 11 11 11 10 9 10 13 16
7 8 9 8 8 8 8 8 7 7 9 12 14 14 14 14 15 15 14 13 11 9 9 8 7 8 9 9 11 13 14 13 11 11 11 13 13 13 13 13 13 12 11 11 11 10 10 10 9 7 5 3 3 3 5 6 8 9 9 8 8 7 7 6 5 4 4 4 4 5 6 7 7 8 9 10 10 11 11 11 11 10 9 11 14
7 9 9 8 8 8 8 9 8 7 8 10 13 15 16 16 16 17 16 15 14 13 12 9 8 10 11 11 13 15 15 16 15 14 14 14 13 13 13 13 12 11 11 11 11 11 10 9 7 5 3 3 4 4 6 7 8 9 9 8 7 7 6 5 5 4 4 4 4 5 6 7 8 9 10 10 11 11 11 12 13 12 11 11 12
8 8 8 8 7 8 9 10 9 8 8 9 11 13 16 17 17 17 16 14 14 16 15 12 10 13 15 15 16 17 17 17 18 18 17 16 14 13 14 14 12 11 11 10 11 10 9 8 6 5 4 4 4 5 7 9 9 10 9 8 7 6 6 5 4 4 4 4 4 5 6 7 7 8 10 10 11 11 11 12 13 14 13 13 14
9 9 8 8 8 9 10 10 10 9 10 10 10 12 13 15 16 16 15 15 14 16 17 16 13 15 17 18 18 18 18 19 19 19 19 18 16 15 15 14 13 12 11 10 10 9 8 7 5 5 5 5 6 6 8 10 10 10 9 8 7 6 6 5 5 4 4 4 5 5 6 7 7 8 10 10 10 11 12 12 13 14 14 14 14
10 10 9 9 9 10 10 10 11 11 11 11 12 13 14 15 16 16 17 17 17 17 19 19 18 18 19 19 19 19 19 20 20 19 19 19 18 17 16 15 14 13 11 9 9 8 8 7 6 6 6 6 7 8 10 10 10 10 9 7 7 6 7 6 6 5 5 5 5 5 5 7 8 8 9 10 10 11 12 12 13 13 13 13 14
9 8 9 10 10 9 9 10 11 13 14 14 15 15 16 17 18 19 20 20 20 20 21 22 22 22 22 21 21 21 20 21 21 19 18 19 19 19 18 18 16 13 11 10 9 8 7 7 6 7 7 7 9 10 11 11 10 9 8 8 7 7 8 7 7 6 5 5 5 5 5 6 8 8 9 10 10 11 11 11 11 12 12 12 13
9 8 10 10 10 9 9 11 12 14 15 16 17 17 18 19 20 21 22 22 22 23 23 24 24 25 24 23 24 23 22 22 22 20 18 18 20 21 20 20 17 14 12 10 9 8 7 6 6 7 8 9 10 11 12 11 9 9 8 8 8 8 8 7 6 6 5 5 5 5 4 6 7 8 10 10 10 10 10 10 10 11 11 11 12
11 13 12 12 12 12 11 12 13 15 17 18 18 18 19 20 21 22 24 24 25 25 26 25 26 27 27 27 27 26 25 24 24 22 21 20 20 21 22 20 18 16 14 11 10 8 7 6 6 7 8 10 11 11 12 11 9 9 9 8 8 8 8 7 6 5 5 5 5 4 4 6 7 8 10 9 9 9 9 10 11 11 11 11 12
11 12 12 13 14 15 15 15 15 15 17 19 20 21 21 21 22 22 24 26 26 27 28 28 28 28 29 29 27 26 26 25 25 23 22 22 21 22 23 22 19 17 15 12 11 10 8 7 6 7 9 10 11 11 11 11 9 9 9 9 8 8 8 7 5 4 4 4 3 3 4 6 8 9 10 9 9 9 9 11 11 11 11 11 12
9 10 11 13 14 15 17 17 16 16 17 19 21 22 23 23 23 23 24 26 27 28 29 30 30 29 31 30 26 26 26 25 26 25 24 24 24 23 23 23 21 18 16 14 13 11 9 8 7 8 10 11 11 11 11 11 10 9 9 9 8 7 7 7 6 4 4 4 3 2 3 6 9 10 10 9 9 9 10 11 11 11 11 12 12
9 10 12 14 14 15 17 17 18 19 19 19 20 21 22 23 25 25 25 26 27 28 29 30 31 30 31 31 28 27 27 26 27 27 26 25 25 23 23 23 22 19 17 16 15 13 10 9 8 8 10 11 12 12 11 11 10 10 9 9 9 8 7 9 8 6 4 4 5 3 2 5 10 10 10 10 9 10 11 12 12 12 12 12 12
10 12 13 14 14 15 17 18 19 21 21 21 20 21 22 22 24 26 27 27 27 28 29 30 31 31 31 31 30 27 25 26 28 28 27 25 25 24 23 23 23 20 18 17 17 14 11 11 10 9 11 12 12 12 12 11 11 10 10 11 11 9 9 10 9 7 6 5 6 5 3 5 10 11 10 11 10 10 12 12 12 12 11 12 12
12 13 14 14 14 15 17 18 19 21 21 21 21 22 22 23 24 26 29 30 30 28 28 30 31 32 31 30 31 29 26 27 29 29 29 28 26 24 24 25 23 21 20 19 18 16 13 13 12 11 12 13 13 13 13 12 12 11 10 12 12 10 10 11 10 8 7 7 7 7 5 5 9 11 11 11 11 11 12 12 13 12 11 12 11
11 12 13 13 14 15 16 17 18 20 22 23 23 23 22 24 26 28 29 31 32 31 30 30 30 31 31 29 29 29 26 27 31 32 32 31 28 25 26 27 24 22 22 21 20 18 16 15 15 14 13 14 14 14 14 13 12 11 11 12 12 11 11 12 11 9 9 9 9 8 7 6 9 11 11 11 12 12 13 12 13 12 11 11 11
10 11 12 12 14 16 17 18 18 20 23 24 24 24 23 23 25 27 28 30 33 34 33 32 31 31 30 28 26 23 23 26 30 31 32 33 31 27 27 28 26 24 24 23 21 20 18 17 16 16 15 15 15 15 14 13 12 12 12 12 13 12 12 13 12 11 10 11 11 10 9 7 9 12 12 12 13 14 14 13 13 13 12 11 10
10 11 12 13 14 16 18 19 20 20 22 24 25 25 26 25 25 26 26 29 31 33 33 33 32 32 32 29 24 21 22 26 26 27 30 33 32 29 29 29 27 26 26 25 23 21 19 18 18 17 17 17 17 16 15 14 14 14 13 13 13 13 13 14 13 12 12 12 12 12 11 9 10 11 12 13 13 15 15 15 14 13 12 10 10
10 11 12 13 14 17 19 20 21 21 22 24 24 23 23 24 25 27 28 28 27 28 31 32 32 34 35 34 31 28 26 24 23 22 24 28 31 30 29 29 28 27 27 26 24 22 21 20 19 19 18 18 18 17 16 15 15 15 14 14 14 14 14 14 14 13 13 13 13 14 12 11 11 11 12 13 13 14 15 15 15 14 12 11 10
10 11 11 12 13 15 17 19 20 21 22 23 21 19 20 21 22 25 26 26 28 28 28 28 32 36 36 36 36 34 30 26 24 22 19 22 28 29 29 29 29 28 28 27 25 23 22 22 20 19 19 19 19 18 16 16 15 15 14 14 15 15 15 16 15 14 14 13 14 15 14 13 12 11 13 14 13 14 14 15 15 14 13 12 10
11 12 12 12 12 14 16 18 20 20 20 18 17 18 19 19 20 20 20 23 27 29 28 27 30 34 36 36 35 33 32 30 27 24 20 20 23 27 28 28 29 29 29 27 26 25 25 24 22 21 20 20 20 19 17 16 16 16 15 15 16 16 17 17 17 17 16 14 15 16 15 14 13 13 14 15 14 14 14 14 14 14 13 12 11
10 11 13 13 13 15 17 19 20 20 18 17 16 16 17 19 19 18 19 20 22 24 27 28 29 32 34 36 35 32 31 31 29 26 23 21 21 23 25 27 29 29 29 29 28 27 26 26 24 22 21 21 20 20 19 17 17 17 16 17 17 17 18 19 19 19 17 16 17 17 16 15 14 15 16 15 14 14 14 14 14 13 13 12 12
10 10 11 12 12 13 15 18 19 19 18 17 16 15 17 18 18 18 19 20 21 22 24 25 28 31 33 34 33 31 29 29 30 30 27 24 23 23 22 24 26 26 28 30 30 29 28 27 27 25 23 22 21 21 20 18 18 17 17 17 18 19 19 19 21 20 17 16 18 18 17 15 16 16 16 16 15 15 14 14 13 13 13 13 13
13 11 10 10 11 11 13 15 17 18 18 18 17 16 17 18 18 18 19 20 21 21 21 22 24 27 30 31 31 30 29 29 29 30 30 29 27 26 24 22 21 21 23 27 29 29 29 28 28 28 25 23 23 22 21 19 19 19 18 18 19 20 20 20 21 20 18 17 17 18 18 17 17 17 17 17 16 16 15 14 14 14 14 13 12
14 12 11 10 10 11 12 13 14 16 17 17 17 17 17 18 18 18 19 20 21 21 21 22 22 24 26 27 28 29 31 30 28 29 31 32 31 28 25 22 20 19 19 23 27 30 30 30 29 29 26 25 24 23 21 20 20 19 19 19 20 21 21 21 22 20 19 18 17 17 19 19 19 18 18 17 16 16 15 15 15 14 13 12 12
14 13 13 11 11 12 13 13 13 14 15 16 17 18 18 18 18 19 20 20 21 21 22 21 21 21 22 23 27 31 33 30 29 30 31 31 32 31 26 23 22 20 18 20 24 28 30 30 30 29 27 27 26 24 23 21 20 19 20 20 20 21 21 22 23 21 20 19 18 18 20 22 22 20 18 18 16 16 15 15 15 14 13 12 12
15 15 16 14 13 14 14 14 14 14 15 16 16 17 18 18 19 19 20 20 21 22 22 21 20 21 20 20 24 30 33 30 30 32 31 30 31 31 29 26 24 22 20 20 22 26 29 30 30 30 29 29 28 26 24 22 22 20 20 21 21 21 22 23 23 22 20 20 19 19 21 24 24 21 18 18 17 16 15 15 15 14 14 13 13
14 15 16 17 16 16 16 15 16 15 15 16 16 16 16 18 19 19 20 20 20 21 21 20 20 22 21 19 20 25 29 29 29 30 31 31 29 29 31 31 28 25 24 23 23 26 28 28 29 31 31 31 29 27 25 23 23 21 21 22 22 22 23 24 24 23 21 21 21 20 21 24 25 22 19 18 17 16 16 15 15 15 14 15 15
12 13 14 16 17 17 17 17 17 17 16 16 16 16 16 16 18 19 19 19 19 20 20 20 20 22 22 19 19 21 24 26 28 28 29 30 29 29 32 33 31 28 27 26 27 28 27 28 29 31 32 32 31 29 27 25 24 22 22 23 23 23 25 25 24 23 22 22 23 22 22 24 24 21 20 19 17 17 16 16 16 15 15 16 16
10 11 12 13 15 16 17 17 17 17 18 17 17 18 17 17 17 18 18 17 18 19 19 19 19 20 21 20 20 21 22 25 27 27 28 29 29 29 31 32 31 30 29 28 30 30 28 28 30 31 32 32 32 30 29 28 25 24 24 24 24 25 26 25 25 24 22 23 24 23 22 23 22 20 20 19 18 17 17 17 17 16 17 17 16
7 9 10 12 13 14 15 16 16 17 19 20 19 20 20 20 19 19 18 17 17 17 18 18 18 18 19 20 23 23 23 24 26 27 28 29 31 31 32 32 31 32 32 30 30 31 29 29 30 32 32 32 32 32 31 30 27 25 26 26 25 25 26 26 25 24 23 24 25 24 22 23 21 20 20 20 19 18 18 18 18 18 18 18 17
7 8 9 10 10 11 12 13 14 16 19 20 19 21 22 22 22 21 20 19 18 17 17 17 17 17 17 19 22 24 25 25 26 27 29 30 31 32 33 34 33 34 34 32 31 31 28 28 29 31 32 31 32 34 33 31 28 26 27 27 26 26 26 26 25 24 24 25 26 25 23 23 22 21 21 20 19 19 19 19 19 19 19 19 18
8 9 9 10 10 10 10 11 13 15 18 19 19 20 21 21 22 22 22 22 21 19 18 17 16 16 18 19 21 23 25 27 28 28 29 30 31 32 33 34 34 35 34 33 33 32 29 26 26 28 30 30 31 33 34 33 30 28 28 28 27 27 28 27 25 24 24 25 26 26 24 23 22 22 22 21 21 21 21 20 20 20 20 19 18
11 11 11 11 11 11 11 11 13 14 17 19 19 21 22 22 22 23 23 24 23 22 20 19 17 16 18 19 20 21 22 25 27 29 30 31 32 33 33 33 34 35 35 34 34 33 30 28 26 26 28 29 30 33 34 34 32 30 29 28 27 28 30 29 27 25 25 25 26 26 25 24 23 23 23 22 22 22 21 21 21 21 21 20 19
13 13 14 14 14 13 12 12 13 14 17 18 19 21 23 24 24 23 23 24 25 24 23 21 19 16 17 19 20 21 21 24 26 28 31 32 33 34 33 33 34 34 35 35 34 32 31 30 28 27 27 29 31 33 34 34 33 32 31 30 29 30 31 30 28 27 26 25 26 27 26 25 24 24 24 24 23 23 22 22 22 22 22 21 20
14 15 16 16 16 16 15 15 14 15 17 18 19 21 23 25 26 26 25 25 25 25 24 23 21 19 18 19 20 20 21 23 25 27 30 31 33 34 32 32 33 34 34 34 33 33 32 31 30 28 28 29 31 33 34 34 34 33 33 33 31 31 31 31 29 27 27 26 27 27 27 25 25 25 25 25 24 24 23 23 23 23 23 22 22
14 15 16 17 17 18 18 18 18 18 19 20 21 22 24 25 26 27 26 27 27 25 24 23 22 21 21 21 20 19 19 21 24 25 27 29 32 34 32 31 32 33 33 34 33 33 33 33 32 31 30 30 30 33 35 34 35 36 36 35 33 33 32 32 30 28 27 26 27 28 28 27 26 26 26 26 25 24 24 24 24 24 24 23 23
16 16 17 17 18 19 20 20 20 20 21 23 23 24 25 26 26 26 25 25 26 26 26 24 22 21 22 23 23 21 20 21 23 25 26 28 31 33 32 30 32 33 33 33 33 32 33 35 34 33 33 32 31 33 36 36 37 39 38 36 35 35 34 33 31 28 27 27 28 28 28 27 26 26 27 27 26 26 25 25 25 25 25 24 23
20 20 20 20 21 21 22 22 22 22 23 24 25 26 27 27 28 27 26 24 23 24 25 26 25 23 21 23 24 24 23 22 23 24 25 27 30 33 33 31 32 33 33 34 33 31 32 35 36 35 34 34 34 36 38 38 38 38 39 38 38 37 35 33 31 30 29 29 29 30 30 29 28 27 28 28 27 27 26 26 26 26 26 25 25
25 25 24 24 24 24 24 24 24 25 25 26 27 28 29 30 30 30 28 26 24 22 22 24 27 27 24 23 23 24 23 23 24 24 25 27 29 33 35 33 33 35 35 34 34 33 32 34 37 37 35 34 34 36 39 41 39 38 40 42 40 38 36 35 33 32 31 31 31 31 30 29 28 27 28 29 28 27 27 27 26 26 26 26 25
28 28 28 28 28 27 26 26 26 26 27 28 30 31 31 31 32 32 31 29 27 24 22 20 22 26 27 26 24 23 23 23 24 24 25 26 28 31 35 35 34 36 36 35 35 35 34 34 36 38 37 34 34 36 39 41 41 41 42 42 40 38 38 37 35 33 32 32 33 33 32 30 29 27 28 29 29 28 28 27 27 27 26 26 26
30 31 31 31 31 30 30 29 29 29 29 31 33 34 33 32 32 33 32 30 29 28 25 22 19 21 25 27 26 24 23 23 24 25 26 27 27 28 31 33 33 35 35 35 35 36 36 36 38 40 39 37 36 39 41 41 41 41 42 42 40 38 37 38 38 36 33 31 32 34 34 33 31 30 30 31 32 31 29 29 28 28 27 27 27
31 32 32 31 32 32 32 32 32 32 32 33 33 33 32 32 31 31 31 31 29 28 27 25 21 19 21 24 25 25 24 24 25 26 26 26 27 28 29 31 33 35 36 36 36 37 38 39 40 40 40 39 39 40 41 40 40 40 40 40 40 39 39 40 41 38 34 32 32 33 34 34 33 32 32 32 33 32 31 30 30 29 28 27 27
31 31 31 31 32 32 33 33 34 34 34 35 34 34 33 32 30 29 29 30 29 27 26 26 24 22 21 22 24 24 24 25 25 25 26 27 28 29 30 31 34 36 38 38 38 39 40 39 39 40 41 41 40 39 39 38 39 41 40 40 41 42 42 43 42 39 37 35 34 33 33 34 34 34 33 33 33 33 32 31 30 28 28 27 27
31 31 31 32 33 33 34 35 35 36 36 36 36 35 34 33 32 30 28 28 29 28 26 25 25 24 23 23 23 23 23 24 24 25 26 27 28 29 31 32 34 37 39 40 39 39 40 39 38 40 41 42 41 40 39 38 39 41 41 41 42 44 44 45 44 41 39 37 36 35 33 34 35 36 35 33 33 32 31 30 29 28 28 28 28
31 32 32 33 33 34 35 36 36 37 38 38 37 37 36 35 33 31 29 28 28 28 27 26 25 24 24 23 23 24 23 23 23 24 25 26 28 30 31 32 34 37 39 40 40 39 39 37 37 38 39 40 41 41 40 40 40 41 42 43 43 44 46 46 44 41 41 39 38 36 34 33 35 36 35 32 31 31 31 30 29 29 28 28 28
32 32 33 33 34 34 35 36 37 37 38 38 38 38 38 36 34 32 30 29 28 27 28 28 26 25 24 24 23 24 24 23 23 23 24 25 26 28 30 32 34 36 39 40 41 40 38 35 35 36 35 36 38 39 39 40 42 42 43 42 42 44 47 45 43 42 42 38 36 35 33 33 34 34 32 30 29 29 30 30 30 29 28 28 27
31 32 32 33 34 35 36 36 37 38 38 38 38 38 39 38 37 34 32 31 29 28 27 28 28 27 25 25 24 24 25 24 23 24 25 25 26 28 30 32 34 35 38 40 40 40 38 35 33 33 32 33 35 37 38 40 42 42 41 40 40 43 46 45 44 44 41 34 31 32 33 33 33 32 31 30 29 29 29 30 30 30 29 28 27
30 31 32 33 34 35 36 37 38 38 38 38 38 37 38 38 38 37 35 33 32 30 29 29 29 28 27 26 25 25 25 25 25 26 26 27 29 30 31 33 34 34 37 38 38 38 37 34 30 29 30 32 34 36 37 39 41 41 40 40 41 43 45 45 45 44 39 33 32 33 33 33 34 34 33 32 31 29 29 29 30 31 30 29 28
30 31 32 32 33 34 36 37 39 39 39 38 37 36 36 38 39 39 38 37 35 34 32 31 31 30 28 28 28 26 25 24 26 27 27 28 30 31 31 32 32 33 35 35 35 37 37 34 29 28 29 30 32 33 33 34 37 39 39 40 42 44 45 45 45 44 39 35 35 36 36 36 35 35 35 34 33 32 30 30 31 31 30 29 29
30 31 32 32 33 34 35 37 39 39 40 39 38 36 35 36 38 39 39 39 38 37 35 33 32 31 30 29 30 29 27 25 25 26 27 28 31 32 31 31 31 33 33 32 33 35 36 33 31 29 28 27 28 31 31 31 33 36 37 39 42 45 46 47 47 45 40 38 38 38 40 40 37 36 38 36 32 31 31 30 29 29 29 28 27
30 30 31 31 32 34 35 37 38 39 40 40 40 38 36 35 36 38 39 40 39 39 38 36 34 33 32 31 31 32 32 30 28 26 25 26 29 32 32 31 32 33 32 30 31 33 33 32 31 30 28 27 28 30 30 32 33 33 35 36 39 45 47 47 46 44 42 42 41 40 42 43 40 39 39 35 29 25 24 25 26 26 27 27 27
Wind_Direction
240 241 241 241 243 245 259 274 262 235 228 227 226 220 212 208 203 197 193 198 202 199 204 205 214 233 222 229 254 264 272 284 291 288 287 292 298 302 301 307 317 314 302 300 304 305 306 303 296 288 275 257 219 183 175 168 163 159 156 152 144 138 136 134 135 139 141 135 127 122 116 111 114 111 99 101 104 103 103 100 104 115 122 133 145
250 243 239 239 244 245 251 262 266 257 245 233 224 224 221 216 213 209 206 213 219 211 215 221 227 237 235 238 251 259 265 271 278 280 283 287 292 296 295 302 314 312 299 297 300 299 302 301 294 284 266 238 216 187 177 173 167 161 156 153 146 139 138 140 145 150 152 140 132 129 122 119 119 117 110 106 104 103 106 106 103 102 109 123 139
261 256 247 241 247 253 256 257 258 260 261 243 226 222 222 222 220 216 215 222 229 225 221 231 247 239 229 237 249 255 259 261 265 270 277 284 288 289 291 299 309 308 298 293 295 296 298 299 294 274 249 234 228 195 175 173 165 157 153 152 148 146 148 152 159 164 167 155 144 136 126 123 122 121 119 114 108 103 103 105 103 98 98 107 124
267 264 259 258 255 256 258 257 255 251 256 251 236 227 224 225 224 222 221 224 230 230 224 224 244 242 230 236 245 251 255 254 257 262 269 276 280 282 286 295 305 306 297 290 291 294 293 292 285 262 244 233 222 193 175 169 161 155 156 157 153 154 156 161 170 171 171 163 150 140 131 131 128 126 126 124 117 110 106 106 104 100 97 102 114
273 272 267 268 263 258 258 260 260 254 252 250 246 240 235 231 228 230 233 233 235 237 232 226 234 239 232 236 245 249 250 251 255 261 265 269 272 277 281 288 299 299 289 287 291 290 286 278 265 255 245 228 212 187 172 165 161 160 161 162 158 157 156 158 163 161 161 158 152 143 137 138 135 132 131 129 124 117 110 109 109 105 102 105 113
262 268 265 262 259 259 261 266 269 264 260 256 251 248 247 245 239 239 242 243 242 243 241 236 237 238 232 233 239 243 248 251 256 260 262 263 265 271 278 284 293 291 282 283 288 286 281 269 254 248 240 223 203 183 171 165 165 165 165 166 161 156 151 151 151 149 149 146 145 145 147 143 137 136 134 132 128 121 113 112 114 111 107 108 112
262 270 272 267 266 267 268 272 270 266 264 262 259 254 253 253 248 246 248 248 247 247 247 246 245 242 236 234 235 239 245 248 252 254 257 260 264 268 275 282 286 282 276 278 282 283 279 269 255 245 234 217 200 183 173 171 172 171 171 168 161 157 151 147 145 141 140 137 137 145 156 153 143 140 137 135 130 125 119 113 112 111 110 111 112
292 304 296 285 284 282 276 272 266 262 261 260 260 259 257 255 250 248 250 252 252 252 252 251 251 247 241 238 235 236 239 243 248 249 250 255 262 267 273 279 280 274 270 273 274 276 280 273 257 241 228 212 197 184 177 177 179 177 175 169 162 161 151 142 137 135 137 133 129 137 155 158 151 146 142 139 135 131 127 117 112 112 110 109 110
306 315 311 302 296 290 281 275 269 263 258 256 257 258 258 256 252 249 249 251 252 255 257 257 256 252 247 244 238 235 237 242 248 249 248 251 257 264 270 276 275 268 264 267 264 265 276 276 253 230 219 208 198 187 182 183 185 182 178 173 167 163 149 134 127 128 138 138 127 125 143 156 157 151 144 139 135 132 128 121 120 123 119 112 109
290 300 306 304 298 292 286 282 277 270 263 259 258 257 256 256 254 251 250 251 252 255 258 260 261 257 253 251 244 239 240 243 249 251 249 253 258 260 266 272 269 262 260 260 258 260 268 268 242 219 211 204 201 193 188 189 191 188 182 178 174 167 154 144 138 131 141 157 145 120 125 147 154 150 143 139 137 133 127 127 129 129 128 123 119
270 277 290 297 295 289 286 285 282 278 271 265 262 262 260 260 259 257 254 253 254 257 258 260 262 259 257 257 251 245 245 246 249 249 247 254 260 257 257 264 263 256 256 255 254 255 258 258 238 217 207 203 203 200 196 195 195 193 188 186 186 185 176 169 170 155 153 183 185 140 116 142 152 149 146 145 143 140 136 136 136 134 134 133 129
273 275 285 294 292 287 285 286 287 284 281 277 275 274 271 268 267 265 262 259 257 258 258 259 260 260 259 260 256 248 246 248 248 246 244 249 256 253 249 255 257 253 253 253 253 252 248 246 235 219 211 206 207 206 202 200 197 198 196 194 198 205 197 184 182 177 176 202 205 183 139 150 158 155 153 153 149 148 147 145 143 140 141 140 138
287 289 290 292 289 287 286 285 286 285 285 286 286 283 279 276 274 271 268 265 262 260 260 259 258 259 259 260 259 253 247 247 248 245 243 246 251 251 245 246 251 252 252 252 252 250 244 240 236 224 217 213 212 210 206 202 200 204 205 203 207 212 204 191 186 188 191 205 212 206 184 168 169 165 161 162 158 154 154 153 151 149 149 149 147
291 293 291 292 291 290 287 285 284 284 285 287 288 285 282 279 276 273 271 269 266 262 260 257 257 260 262 261 260 258 252 247 248 246 244 243 244 245 242 242 247 251 252 251 250 250 244 238 235 231 224 219 217 212 208 206 207 213 212 209 213 215 207 198 192 195 200 207 216 214 204 186 174 170 168 168 165 160 158 159 159 159 161 164 159
290 288 287 290 293 290 286 285 286 288 288 287 287 286 284 280 277 274 274 272 269 264 260 257 257 260 262 260 260 261 257 250 247 247 245 243 239 238 240 241 243 249 252 250 249 249 245 238 235 235 231 224 221 217 214 217 219 220 216 213 215 215 212 204 197 200 205 209 216 217 214 199 176 172 173 175 175 168 163 163 167 168 171 177 173
288 284 287 289 288 285 283 284 286 288 289 287 287 286 284 281 278 276 274 273 269 265 263 259 256 255 255 256 256 256 255 252 250 250 246 244 241 239 240 240 239 244 248 248 247 246 245 241 236 236 234 228 225 222 221 223 223 222 219 216 215 215 215 208 199 202 210 212 214 217 220 209 185 177 179 183 184 177 171 169 171 174 178 182 180
292 289 289 288 285 285 285 286 287 287 288 289 287 286 284 281 279 279 277 273 270 267 266 262 256 252 250 249 247 244 247 253 254 254 249 244 243 241 239 238 237 239 245 247 245 244 244 240 235 235 235 229 226 226 225 224 223 221 218 217 216 215 214 209 199 200 212 215 213 215 222 220 202 188 187 190 189 186 183 181 181 185 188 188 187
297 298 293 292 292 291 291 292 292 291 292 293 292 292 289 284 281 281 280 277 274 271 267 263 258 253 250 249 248 247 249 253 251 250 250 244 241 240 238 236 236 238 242 245 243 242 242 238 234 234 234 231 227 226 225 223 223 221 219 219 219 216 214 210 201 200 211 213 210 214 220 224 216 199 194 193 190 190 192 193 194 198 198 197 196
295 302 303 305 304 300 299 299 299 301 301 300 303 305 300 294 288 286 287 284 279 275 271 268 261 255 251 249 251 251 248 247 247 246 245 241 236 235 236 236 235 236 239 242 242 242 240 236 233 232 233 233 230 228 225 222 222 222 221 220 220 217 213 211 204 201 208 207 208 217 223 224 220 204 195 193 190 189 193 196 199 202 201 200 197
291 296 299 307 309 306 305 302 305 310 308 306 312 313 307 304 299 295 296 294 287 281 278 275 268 260 254 249 249 251 248 243 244 243 239 241 240 234 234 235 236 237 237 239 240 241 239 236 234 232 231 231 230 229 227 223 221 222 221 219 219 216 212 211 208 206 208 205 204 216 225 224 217 205 196 193 191 189 192 195 198 199 197 194 192
281 287 292 299 306 309 308 305 306 309 310 310 315 316 312 311 308 302 301 300 299 291 282 282 280 270 258 250 246 247 249 244 240 240 238 240 243 238 232 231 233 236 236 237 237 238 238 237 237 235 232 231 230 229 228 225 223 222 219 217 218 217 214 212 212 213 215 208 200 208 221 220 210 205 198 194 193 191 192 195 197 195 191 189 188
274 280 288 295 301 307 307 304 302 303 307 309 311 312 311 311 310 306 303 302 303 296 288 289 288 276 262 252 245 242 245 244 240 241 238 234 236 239 237 233 233 237 238 237 235 235 236 237 237 236 232 230 230 230 230 226 225 224 220 218 220 220 218 214 214 217 217 213 204 204 212 212 207 205 199 195 195 193 192 194 196 195 191 189 185
278 281 285 287 291 298 304 305 303 303 304 305 306 307 308 309 308 304 301 301 302 299 295 292 285 278 268 255 245 241 242 243 245 246 240 234 232 235 238 238 240 244 243 240 238 235 234 235 236 235 233 231 229 229 230 228 227 226 221 220 223 223 219 214 215 217 215 215 212 204 203 205 209 209 201 197 198 194 192 194 197 197 193 187 182
275 281 283 283 288 295 302 305 308 308 305 303 304 304 304 306 305 302 300 301 303 303 300 294 285 281 277 260 245 242 243 243 249 253 249 241 236 237 239 239 240 244 245 242 239 235 234 234 234 234 233 233 231 228 229 230 229 226 221 220 224 224 220 214 213 215 215 215 215 207 199 201 213 215 204 200 202 198 195 195 198 198 191 185 180
283 290 290 293 297 297 300 307 314 314 307 303 303 304 305 305 304 303 303 303 305 305 302 297 288 281 279 266 248 240 241 244 247 253 254 248 241 240 240 239 240 244 247 243 238 235 234 234 234 234 233 233 232 228 228 230 230 226 221 219 222 221 218 214 211 212 215 215 214 211 200 199 213 219 207 202 204 202 200 198 198 196 190 185 177
288 292 292 293 293 292 295 301 307 307 306 305 304 304 305 304 304 304 304 305 306 307 304 297 287 278 273 267 253 240 237 242 247 250 253 250 243 239 237 238 240 241 244 244 239 235 233 233 233 233 233 233 232 229 227 228 228 225 221 220 221 218 215 213 211 212 216 216 214 213 206 203 212 218 210 205 206 205 203 201 198 194 189 183 175
285 287 287 286 283 282 285 290 294 298 302 305 304 302 301 300 302 303 303 305 305 305 306 300 290 282 273 265 256 243 236 241 247 250 253 251 245 241 239 239 237 235 236 239 239 237 235 235 234 233 233 233 232 230 227 227 227 224 221 220 220 217 213 211 211 213 216 216 215 215 212 211 214 216 212 208 207 206 205 202 198 194 188 181 176
285 286 285 284 282 279 279 281 286 292 297 300 301 300 298 297 299 301 302 305 304 303 306 305 298 290 281 269 259 250 242 244 249 250 251 249 244 242 243 241 237 234 233 233 236 238 237 235 234 234 233 232 231 230 228 227 226 223 222 222 221 217 212 211 212 215 216 216 216 216 215 216 216 214 211 210 208 206 205 201 197 194 187 181 179
294 293 292 291 291 288 284 279 279 285 288 289 293 295 294 292 292 295 300 303 303 302 303 304 302 296 286 275 268 261 252 249 250 250 250 249 244 243 245 246 243 238 233 230 234 239 239 236 234 233 232 231 231 229 228 227 224 221 222 222 221 216 212 211 213 216 217 216 216 216 215 217 216 212 209 208 207 207 204 200 197 194 189 185 185
320 312 306 302 300 297 295 289 282 282 281 281 286 290 292 292 289 290 294 297 298 297 298 301 302 297 287 277 273 271 264 256 253 253 252 251 248 246 247 249 248 242 236 234 238 243 243 240 238 235 233 231 231 229 228 227 223 220 222 223 220 215 212 212 215 218 218 216 215 215 215 216 214 210 208 206 206 207 204 201 198 194 192 191 191
343 333 324 319 314 306 301 297 290 284 281 280 283 286 289 292 293 292 292 293 292 290 292 296 299 296 288 279 273 270 267 262 257 256 255 254 251 249 247 248 248 245 241 240 243 245 244 243 242 238 235 232 230 228 226 226 224 221 222 222 219 216 213 213 216 219 219 216 214 215 215 215 213 209 208 207 206 206 205 202 199 197 196 196 197
359 351 343 337 332 323 314 308 301 292 286 283 282 283 286 290 293 294 293 295 295 293 293 294 294 292 286 279 272 267 266 264 261 259 257 254 252 249 247 246 245 245 244 242 243 246 245 244 244 240 236 232 228 226 224 224 223 221 222 222 218 217 216 213 215 218 219 217 215 215 216 215 212 209 208 207 206 207 207 204 201 200 199 200 201
10 5 359 354 349 341 332 322 313 303 296 292 288 285 284 284 287 289 290 292 293 295 298 296 291 288 285 280 276 272 270 267 263 260 257 253 251 250 247 245 243 244 246 243 240 244 245 242 243 240 235 231 227 226 225 223 220 218 220 220 218 218 216 214 215 217 219 218 216 215 217 216 213 210 209 208 207 208 208 206 203 202 202 203 204
17 13 11 8 3 357 350 339 327 318 312 308 303 297 291 287 285 285 286 288 290 294 297 296 293 290 285 283 281 279 277 273 268 264 259 254 251 248 244 242 242 243 246 245 241 241 243 240 240 237 231 229 228 226 226 225 221 217 217 217 216 217 217 216 218 219 218 218 217 216 217 216 214 212 211 210 209 209 209 208 206 205 205 206 206
20 17 15 13 11 7 4 359 351 340 333 330 327 320 312 305 298 293 288 285 286 291 295 297 295 290 285 283 283 283 282 277 271 268 264 256 251 249 243 240 243 244 245 246 242 240 241 238 235 233 230 229 229 227 226 227 225 221 218 217 215 214 216 217 219 220 219 219 218 217 217 217 216 214 213 212 211 211 211 210 209 208 208 208 208
19 19 16 14 13 13 12 11 7 1 354 351 349 342 336 330 322 313 303 292 285 284 288 294 294 288 283 281 281 282 282 277 271 268 267 261 253 248 243 240 243 244 244 244 242 240 240 238 234 232 231 232 232 229 226 228 229 225 221 219 218 216 216 217 218 218 220 221 220 217 217 217 216 216 215 214 214 213 213 212 211 210 210 211 210
17 16 16 15 14 15 16 15 13 10 6 2 359 353 349 346 340 333 325 312 297 286 280 283 289 288 283 281 282 282 280 278 272 266 264 264 256 248 245 243 244 246 244 244 243 239 237 238 235 232 231 232 233 230 226 226 228 227 223 221 222 219 215 215 218 219 221 222 221 218 217 217 218 218 217 216 216 216 215 214 213 212 213 212 212
21 18 18 17 16 17 17 16 15 14 11 7 2 358 353 349 344 341 337 330 317 300 284 277 278 284 284 281 281 282 280 277 273 267 262 262 257 249 246 245 246 248 245 243 243 241 238 238 237 233 230 231 231 228 225 224 226 227 224 220 223 223 218 216 219 220 220 221 220 218 217 216 217 218 217 217 217 218 217 216 215 215 215 214 213
28 25 23 21 21 21 20 19 18 15 12 8 4 1 357 353 349 344 340 336 330 319 301 282 273 275 279 280 279 280 280 278 274 270 266 264 259 251 247 245 244 247 246 242 241 241 240 240 238 234 231 230 229 227 225 223 224 227 224 220 221 222 219 218 219 219 218 218 217 217 217 217 218 219 219 218 218 218 218 218 217 216 217 216 214
34 32 31 30 28 28 25 22 19 15 12 8 6 3 360 358 354 349 345 341 337 331 319 300 281 272 271 275 278 278 278 277 275 272 270 268 264 256 249 243 241 244 245 242 241 241 242 242 239 235 232 229 225 223 223 221 220 222 223 222 224 224 220 218 218 218 218 216 214 214 214 215 218 220 220 218 217 218 219 218 218 217 218 218 216
38 37 35 34 33 31 28 26 23 19 16 13 11 6 2 1 359 355 351 347 343 338 328 315 297 279 271 271 274 276 275 273 271 270 270 270 267 259 251 244 241 243 245 243 242 243 243 240 236 234 232 227 220 218 219 220 221 224 223 220 224 227 224 219 216 216 218 217 214 212 212 213 215 216 217 217 216 216 217 217 217 216 217 218 217
41 40 38 37 35 32 29 28 25 23 20 17 14 10 5 3 1 359 358 355 350 344 335 325 312 295 280 272 271 272 273 274 272 268 266 264 263 260 253 245 242 243 244 242 240 241 240 235 232 231 228 224 220 219 221 223 226 227 224 220 223 226 223 220 217 215 215 216 214 213 212 213 214 216 217 216 215 215 215 215 216 216 216 217 217
43 42 39 37 35 33 29 28 25 23 22 18 15 12 9 6 3 1 1 1 357 350 343 335 324 311 296 282 275 272 271 274 275 271 265 260 258 257 255 249 243 243 245 244 240 239 238 236 235 232 227 223 224 225 226 225 224 224 223 224 225 224 221 220 219 215 213 213 213 216 216 214 215 217 218 217 216 215 215 216 216 216 216 216 217
43 40 38 35 33 31 29 27 24 22 21 18 15 12 10 8 6 3 2 2 2 358 351 343 334 324 310 295 283 277 274 272 271 271 268 263 258 256 255 253 247 243 244 245 244 241 239 239 238 235 230 228 229 229 227 224 223 224 225 226 227 225 223 223 221 218 215 212 211 214 218 217 216 216 217 217 216 216 216 217 217 217 217 216 217
42 39 36 34 32 31 28 26 24 21 19 17 15 13 11 9 7 6 4 3 4 3 359 352 344 335 324 310 293 282 277 273 269 268 269 268 264 258 255 253 250 246 243 244 246 245 243 242 241 240 237 235 233 231 230 228 227 226 224 224 226 226 225 225 225 224 220 213 208 210 215 216 214 214 216 216 216 216 216 216 216 217 217 217 217
41 39 36 33 32 30 28 26 23 21 18 16 13 12 11 9 8 7 7 6 5 5 3 359 353 346 337 327 311 295 284 276 270 267 266 266 265 262 256 252 250 249 245 243 244 246 245 243 243 244 244 241 238 235 233 231 230 228 225 224 226 226 225 226 227 228 223 215 208 207 209 209 209 210 212 212 212 214 216 216 217 217 217 217 217
40 37 34 32 30 28 26 25 23 20 17 15 12 10 9 8 7 7 7 7 5 5 5 3 359 354 347 338 327 313 299 287 275 269 267 264 261 260 258 254 251 250 248 245 242 242 243 243 242 243 243 243 241 240 237 233 230 230 230 231 230 226 222 221 224 226 222 214 209 208 206 204 204 207 210 210 211 213 213 215 216 217 217 217 217
38 36 32 30 28 26 24 23 21 19 16 13 11 9 8 7 6 5 5 6 5 4 5 4 0 357 354 348 338 326 315 302 287 277 272 266 260 258 258 257 254 252 251 247 242 241 242 242 242 242 243 243 242 241 242 238 232 229 229 229 227 222 217 215 218 221 219 212 209 209 208 206 206 209 212 212 213 214 214 215 216 217 217 217 216
34 32 30 28 25 24 22 20 19 17 16 14 10 8 7 7 7 6 4 4 4 3 3 3 0 358 357 355 349 339 328 315 302 292 284 273 262 257 257 258 258 256 253 249 244 243 243 241 239 240 243 243 240 239 241 240 237 234 231 227 224 222 218 215 216 218 216 211 208 209 211 213 210 210 212 213 215 216 215 216 218 217 217 217 217
32 30 28 26 24 22 20 19 18 17 17 16 13 10 8 7 7 7 5 2 2 1 360 359 358 358 357 356 353 348 341 330 316 305 296 284 271 261 256 255 257 257 253 249 246 244 242 240 237 236 236 235 235 235 235 234 235 237 234 230 226 224 220 218 217 216 212 211 211 211 213 215 214 211 211 210 211 215 217 217 217 216 212 209 210
31 29 27 25 23 21 19 17 17 17 18 18 17 14 11 8 8 8 6 4 2 1 359 356 354 355 356 356 354 351 346 340 329 317 305 293 280 268 259 253 253 254 252 249 246 241 239 239 236 230 227 228 232 235 232 228 228 229 231 231 228 225 222 220 219 215 210 210 212 212 213 214 214 211 209 206 199 197 204 208 206 203 199 196 194